Location: Banksville Park
(38.5557°N, 75.1182°W)
Time: 22:40:39
(UTC+00:00)

FENGYUN 3A - Pass Details

Date: 19 September 2020
Orbit: 824 x 835 km, 98.4° (Epoch: 31 October)

Event Time Altitude Azimuth Distance (km) Brightness Sun altitude
Rises 09:24:34 0° 16° (NNE) 3,372 7.3 -16.5°
Reaches altitude 10° 09:26:58 10° 20° (NNE) 2,436 6.6 -16.1°
Maximum altitude 09:32:19 63° 101° (E) 923 4.1 -15.1°
Drops below altitude 10° 09:37:38 10° 182° (S) 2,427 5.9 -14.1°
Sets 09:40:00 0° 186° (S) 3,358 6.6 -13.6°
